Temperature
18 18 18 18 18 18 18 17 17 17 17 16 16 16 16 16 16 15 15 15 15 15 15 15 15 15 15 15 14 14 14 14 14 14 14 14 14 14 14 13 13 13 13
18 18 18 18 18 18 18 17 17 17 17 16 16 16 16 15 15 15 15 15 15 15 15 15 15 15 15 14 14 14 14 14 14 14 14 13 13 13 13 13 13 13 13
18 18 18 18 18 17 17 17 17 17 17 16 16 16 15 15 15 15 15 15 15 15 15 15 15 15 15 14 14 14 14 14 14 14 14 14 13 13 13 13 13 13 13
18 17 17 17 17 17 17 17 17 16 16 16 16 16 16 15 15 15 15 15 15 15 15 15 15 14 14 14 14 14 14 14 14 14 14 14 14 13 13 13 13 13 13
17 17 17 17 17 17 17 17 17 16 16 16 16 16 16 15 15 15 15 15 15 15 15 15 14 14 14 14 14 14 14 14 14 14 14 14 14 13 13 13 13 13 13
17 17 17 17 17 17 17 16 16 16 16 16 16 16 16 15 15 15 15 15 15 15 14 14 14 14 14 14 14 14 14 14 14 14 14 14 14 13 13 13 12 12 12
17 17 17 17 17 16 16 16 16 16 16 16 16 15 15 15 15 15 15 15 15 15 14 14 14 14 14 14 14 14 14 14 14 14 14 14 14 13 13 13 13 12 12
16 16 16 16 16 16 16 16 16 16 16 15 15 15 15 15 15 15 15 15 15 15 14 14 14 14 14 14 14 14 14 14 14 14 14 14 13 13 13 13 13 12 12
16 16 16 16 16 16 16 16 16 15 15 15 15 15 15 15 15 15 15 15 15 15 14 14 14 14 14 14 14 14 14 14 14 13 13 13 13 13 13 13 13 13 12
16 16 16 16 16 16 16 16 16 15 15 15 15 15 15 15 15 15 15 14 15 15 15 14 14 14 14 14 14 14 14 14 13 13 13 13 13 13 13 13 13 13 13
16 16 16 16 16 16 16 16 15 15 15 15 15 15 15 15 15 14 14 14 14 14 14 14 14 14 14 13 13 13 13 13 13 13 13 13 13 13 13 13 13 13 12
16 16 16 16 15 15 15 15 15 15 15 15 15 14 14 14 14 14 14 14 14 14 14 14 14 14 13 13 13 13 13 13 13 13 13 13 13 13 13 13 12 12 12
16 16 16 15 15 15 15 15 15 15 15 14 14 14 14 14 14 14 14 14 14 14 14 13 13 13 13 13 13 13 13 13 13 13 12 12 12 12 12 12 12 12 12
16 16 15 15 15 15 15 15 15 14 14 14 14 14 14 13 13 13 13 13 13 13 13 13 13 13 13 13 12 12 12 12 12 12 12 12 12 12 12 12 12 12 12
16 15 15 15 15 15 15 14 14 14 14 14 14 14 13 13 13 13 13 13 13 13 13 13 13 12 12 12 12 12 12 12 12 12 12 12 12 12 12 12 12 12 12
15 15 15 15 15 14 14 14 14 14 14 13 13 13 13 13 13 13 13 13 12 12 12 12 12 12 12 12 12 12 12 12 12 12 12 12 11 11 11 11 11 11 11
15 15 15 14 14 14 14 14 14 13 13 13 13 13 12 12 12 12 12 12 12 12 12 12 12 12 11 11 11 11 11 11 11 11 11 11 11 11 11 11 11 11 11
15 15 15 14 14 14 14 14 13 13 13 13 12 12 12 12 12 12 12 11 11 11 11 11 11 11 11 11 11 11 11 11 11 11 11 11 11 11 11 11 11 11 11
15 15 14 14 14 14 14 13 13 13 13 12 12 12 11 11 11 11 11 11 11 11 10 10 10 10 10 10 10 10 10 11 11 11 11 11 11 11 10 10 10 10 10
14 14 14 14 14 13 13 13 13 12 12 12 12 11 11 11 11 11 10 10 10 10 10 10 10 10 10 10 10 10 10 10 10 10 10 10 10 10 10 10 10 10 10
14 14 14 14 13 13 13 13 12 12 12 11 11 11 11 10 10 10 10 10 10 10 9 9 9 9 9 9 10 10 10 10 10 10 10 10 10 10 10 10 10 10 10
13 13 13 13 13 12 12 12 12 12 11 11 11 10 10 10 10 9 9 9 9 9 9 9 9 9 9 9 9 9 9 9 9 9 9 9 9 9 9 9 9 9 9
13 13 13 12 12 12 12 12 11 11 11 10 10 10 10 9 9 9 9 9 8 8 8 8 8 8 8 8 8 9 9 9 9 9 9 9 9 9 9 9 9 9 9
12 12 12 12 12 11 11 11 11 10 10 10 10 9 9 9 9 9 8 8 8 8 7 7 8 8 8 8 8 8 8 8 8 8 8 8 8 9 9 9 8 8 8
12 12 11 11 11 11 10 10 10 10 10 9 9 9 9 9 8 8 8 8 7 7 7 7 7 7 7 7 7 7 7 8 8 8 8 8 8 8 8 8 8 8 8
11 11 11 11 10 10 10 10 9 9 9 9 9 8 8 8 8 8 7 7 7 7 7 6 7 7 7 7 7 7 7 7 7 7 7 7 7 7 7 7 7 7 7
Wind_Speed
2 2 3 4 4 5 6 5 5 4 5 3 3 3 2 1 1 2 4 5 6 7 6 4 4 4 3 3 4 3 3 2 2 3 3 4 4 3 2 2 2 2 3
2 3 3 3 4 6 6 5 5 5 5 4 3 3 3 2 1 1 3 4 5 6 6 5 4 4 4 4 3 3 2 1 1 3 3 2 4 3 2 2 1 1 2
5 4 4 4 3 4 5 5 5 5 4 4 3 3 3 2 2 1 1 1 3 4 5 5 4 4 3 3 3 3 4 2 0 1 3 3 2 1 3 2 1 1 1
5 4 4 3 3 3 4 5 5 4 4 4 5 5 4 3 3 2 2 1 2 4 4 5 5 4 3 3 3 3 3 3 1 0 1 2 4 3 0 2 2 1 1
5 5 4 4 3 3 3 4 5 5 4 5 6 6 5 3 2 2 2 2 1 2 3 4 4 3 3 3 2 2 3 3 3 2 1 2 2 2 3 1 2 2 1
4 4 3 2 2 2 2 2 3 3 3 4 5 6 7 5 4 3 3 2 1 1 2 3 3 3 3 3 2 2 3 3 2 2 2 3 2 2 3 2 1 1 2
5 4 3 3 2 3 2 2 3 2 2 3 4 5 6 6 6 5 4 3 2 2 3 3 3 2 2 3 3 2 2 2 2 3 2 3 3 3 3 3 2 1 1
5 4 4 4 4 4 3 3 3 2 2 2 2 3 4 4 4 4 4 4 4 4 4 4 4 3 3 3 3 2 2 2 2 2 3 2 2 3 4 4 4 2 1
5 4 4 4 4 4 4 4 3 2 2 2 1 2 2 4 4 4 4 3 3 3 4 4 3 3 3 3 3 2 2 2 2 3 3 2 2 2 3 4 4 5 2
5 4 4 4 3 4 3 3 3 3 2 2 2 2 1 2 3 3 3 3 4 3 4 4 4 3 2 2 2 2 2 2 1 2 2 2 1 1 2 3 3 4 5
6 5 4 4 4 3 3 3 2 2 2 2 2 1 1 1 2 2 2 2 3 3 4 4 4 3 3 2 2 2 2 2 2 1 2 2 2 2 1 2 3 3 3
5 5 5 4 3 2 2 2 2 2 1 2 2 2 2 2 2 1 1 2 2 3 4 4 4 4 3 3 3 3 2 3 2 2 2 2 2 2 2 2 2 2 3
4 4 4 4 3 3 3 2 2 1 1 1 3 2 2 2 1 1 1 2 2 2 2 3 4 4 3 3 3 3 3 3 3 3 3 2 3 3 2 2 2 2 2
5 4 4 4 4 3 3 2 2 1 2 2 2 2 1 1 1 0 1 1 2 2 2 2 3 3 3 3 3 3 3 3 3 3 3 3 3 4 4 3 3 3 2
5 5 5 4 3 3 3 2 1 1 2 2 2 1 0 1 1 1 1 1 1 2 2 2 1 2 2 3 3 4 3 3 2 2 3 3 4 4 4 3 3 3 3
5 5 5 4 4 5 4 3 2 2 2 2 2 1 1 2 1 1 1 1 1 1 1 2 2 1 2 2 4 4 3 3 3 3 3 3 3 4 4 4 5 5 5
6 6 6 5 5 6 6 5 4 3 3 3 2 2 2 1 1 1 1 1 1 1 1 0 1 1 1 1 2 3 3 2 3 3 3 3 3 3 3 3 3 5 6
5 6 6 5 5 5 4 4 3 3 4 3 2 2 3 2 1 1 1 0 0 1 1 0 1 0 1 1 1 2 2 2 2 3 4 4 3 3 3 3 2 2 3
5 4 5 4 3 3 4 4 3 3 3 3 3 3 3 2 1 1 1 1 0 0 1 0 0 1 1 1 1 1 1 2 3 3 3 4 4 4 4 3 3 3 3
2 2 3 2 2 3 4 4 4 3 3 4 4 3 2 3 3 3 2 1 1 1 1 0 0 1 1 2 2 1 1 2 2 3 3 4 4 4 5 4 4 4 4
1 1 2 3 3 3 4 4 3 4 4 3 3 2 2 2 3 2 2 1 1 1 0 0 1 1 1 2 1 1 1 2 2 2 3 3 4 4 5 5 5 6 4
1 1 2 2 2 3 4 4 4 4 2 2 2 2 2 2 1 2 1 1 2 1 1 1 1 1 2 2 2 1 2 2 2 3 3 3 4 5 5 5 5 5 3
2 1 2 2 1 2 4 4 4 3 3 3 2 2 1 1 1 2 1 1 1 1 1 1 1 2 2 2 3 2 2 2 2 2 4 4 4 3 3 5 5 3 2
2 1 2 2 1 2 3 4 3 3 4 3 2 2 1 1 0 1 2 2 2 2 2 2 2 2 2 2 2 2 2 3 3 3 3 3 3 1 2 2 2 2 3
2 1 2 3 3 3 2 2 3 4 4 3 2 2 2 2 1 1 1 2 3 3 3 3 3 2 3 4 4 2 2 2 3 2 1 1 1 1 1 1 2 2 2
1 1 2 2 2 1 1 2 2 4 4 3 2 2 2 2 1 1 1 2 2 2 2 2 3 3 4 4 4 4 4 3 2 1 1 1 2 2 3 3 2 2 3
Wind_Direction
202 180 168 163 144 143 148 155 155 148 138 133 130 125 127 110 82 103 128 133 132 132 129 128 121 117 115 122 117 107 89 72 95 81 48 23 27 33 32 37 67 77 89
150 171 167 165 165 164 160 163 164 157 153 161 158 149 143 135 145 101 105 126 133 136 139 138 137 132 125 119 120 120 113 89 99 118 97 36 6 2 11 22 56 65 85
179 177 174 175 164 174 175 173 176 169 165 157 129 110 86 68 60 50 78 129 137 136 143 146 137 141 142 145 151 147 140 149 32 133 142 139 199 303 336 349 21 46 78
168 162 170 171 173 188 174 161 169 172 173 158 152 153 155 169 190 182 194 185 128 130 139 145 143 147 146 149 164 151 149 148 164 207 123 152 155 155 302 337 351 11 68
158 159 166 177 182 176 159 159 161 171 177 166 165 164 165 183 181 162 169 169 149 139 148 147 147 153 155 164 167 154 157 163 168 173 151 105 92 114 143 227 320 353 338
145 149 143 132 134 131 131 144 142 162 172 170 170 165 168 167 158 169 178 189 179 191 173 151 154 163 165 173 175 170 166 177 173 170 161 154 150 163 149 169 209 272 305
135 133 125 136 144 139 139 144 142 139 157 163 176 173 173 171 174 181 189 187 188 194 200 175 173 180 183 177 166 168 182 180 176 179 183 176 178 163 150 145 165 194 312
142 145 151 156 159 155 152 146 145 143 138 146 177 172 178 183 187 186 184 192 199 201 193 182 178 184 185 178 168 168 198 183 186 188 178 171 190 169 162 158 148 126 348
158 157 157 152 151 155 153 155 146 135 135 141 158 172 178 180 186 194 193 200 207 199 183 173 172 179 183 179 172 177 197 178 183 186 178 173 190 177 177 162 154 151 169
166 162 158 157 158 161 160 149 140 149 150 135 140 165 175 180 183 176 186 201 211 197 171 175 179 182 182 177 168 186 203 162 181 184 175 177 181 171 158 162 161 155 159
171 170 168 167 161 147 133 133 142 140 142 148 137 105 98 125 127 137 183 196 200 190 180 179 174 173 174 166 160 181 166 172 192 191 179 200 171 154 162 146 145 153 149
174 169 163 153 143 138 133 133 136 132 169 170 138 129 118 104 109 127 162 164 178 190 188 176 166 172 173 166 165 179 176 179 186 189 171 199 164 155 160 151 160 165 162
162 158 155 159 166 165 164 161 142 135 136 142 130 119 112 119 136 169 185 169 170 175 175 173 174 181 181 178 183 185 187 191 194 187 179 196 164 177 181 173 174 174 163
168 166 174 184 181 171 164 158 157 141 118 108 110 115 127 161 165 186 151 165 184 172 161 168 185 191 194 187 184 185 189 196 203 197 192 196 189 196 198 190 192 177 156
172 180 189 193 182 171 169 167 174 149 136 116 115 149 139 96 84 78 71 83 123 174 167 154 168 186 197 203 194 196 194 194 210 218 212 209 202 200 198 194 189 174 168
185 189 189 186 183 187 189 185 187 189 155 141 164 147 96 86 77 76 63 66 71 77 123 156 173 194 224 207 196 190 198 197 200 219 232 225 209 213 212 210 195 183 181
190 189 191 195 199 199 192 193 199 188 164 163 160 144 137 114 86 68 58 35 31 77 65 69 125 176 254 234 188 196 189 196 210 214 219 229 220 205 205 227 224 219 212
194 197 199 203 210 204 194 191 181 175 171 175 184 180 168 168 158 90 65 294 219 150 154 216 162 169 285 253 223 212 192 194 218 220 213 214 233 220 193 192 205 233 234
189 193 194 194 199 198 186 162 158 160 166 183 197 205 189 181 172 182 219 248 228 239 236 205 170 164 301 307 265 218 201 223 244 244 229 217 219 224 192 181 206 240 264
167 183 174 155 173 202 166 151 166 164 189 204 204 202 194 190 196 207 213 214 190 216 235 319 289 226 259 281 279 251 200 227 253 260 253 239 227 229 204 193 201 227 250
216 194 155 166 195 188 154 155 168 198 213 206 191 185 192 205 202 199 208 198 181 163 175 289 303 297 289 308 289 292 233 230 244 254 256 254 252 241 219 209 207 223 228
204 184 163 194 203 173 155 166 200 215 186 160 166 189 199 211 201 183 204 187 163 165 206 230 292 296 296 305 289 281 277 253 218 243 251 246 252 237 230 224 225 221 202
187 184 175 186 227 201 172 183 215 190 154 143 159 180 184 206 176 177 194 170 155 171 224 220 252 285 294 298 288 275 278 286 247 253 267 268 263 252 241 237 236 216 191
201 182 157 163 215 230 200 199 199 167 148 155 172 172 168 187 171 175 181 175 190 205 235 243 250 268 280 284 289 277 263 266 268 268 282 290 275 244 246 254 248 221 204
219 188 184 189 209 222 221 215 187 153 152 162 169 175 181 183 194 207 206 199 211 208 218 234 232 236 263 271 270 266 266 256 253 261 307 336 323 276 267 260 243 229 216
208 202 196 198 208 203 225 226 178 158 160 170 181 187 188 186 186 203 274 277 239 235 233 250 248 251 253 276 282 272 268 271 262 159 203 238 246 251 250 245 247 234 228
Height
1522 1523 1523 1524 1525 1526 1527 1528 1529 1529 1530 1531 1531 1532 1533 1534 1534 1535 1536 1536 1537 1537 1537 1537 1538 1538 1539 1539 1539 1539 1539 1540 1540 1540 1540 1541 1541 1541 1540 1540 1540 1540 1539
1521 1522 1522 1523 1524 1525 1526 1527 1527 1528 1529 1529 1530 1530 1531 1532 1533 1534 1535 1535 1536 1536 1537 1537 1537 1538 1538 1538 1539 1539 1539 1539 1539 1540 1539 1540 1542 1541 1541 1541 1540 1540 1540
1519 1521 1522 1522 1524 1525 1526 1526 1527 1527 1528 1528 1529 1529 1530 1531 1532 1533 1534 1534 1535 1536 1536 1536 1537 1537 1537 1538 1538 1538 1538 1538 1539 1539 1540 1540 1540 1540 1541 1540 1540 1540 1540
1518 1520 1521 1522 1522 1524 1525 1525 1526 1527 1527 1527 1527 1527 1528 1529 1530 1531 1533 1534 1534 1535 1535 1536 1536 1536 1537 1537 1537 1537 1538 1537 1537 1538 1538 1539 1539 1539 1540 1540 1540 1540 1540
1517 1519 1520 1521 1522 1523 1524 1524 1525 1526 1526 1526 1526 1526 1527 1528 1529 1530 1531 1532 1533 1534 1534 1534 1535 1535 1536 1536 1536 1536 1536 1536 1537 1537 1537 1537 1538 1538 1538 1539 1539 1539 1539
1516 1518 1519 1520 1521 1522 1523 1523 1524 1524 1524 1524 1525 1525 1526 1526 1528 1529 1530 1531 1532 1532 1533 1533 1534 1534 1534 1534 1535 1535 1535 1535 1536 1536 1536 1536 1536 1537 1537 1537 1537 1538 1538
1516 1517 1518 1519 1520 1521 1521 1522 1522 1522 1523 1523 1523 1524 1524 1525 1526 1527 1528 1529 1530 1530 1531 1531 1532 1532 1533 1533 1533 1534 1534 1534 1534 1535 1535 1535 1535 1536 1536 1536 1536 1537 1537
1516 1517 1517 1518 1519 1520 1520 1521 1521 1521 1521 1521 1522 1522 1523 1524 1524 1525 1526 1527 1527 1528 1529 1529 1530 1530 1531 1532 1532 1532 1532 1533 1533 1533 1533 1534 1534 1535 1535 1535 1535 1535 1536
1515 1516 1517 1517 1518 1519 1519 1520 1520 1521 1520 1520 1521 1521 1521 1522 1522 1523 1524 1524 1525 1526 1527 1527 1528 1528 1529 1530 1530 1530 1530 1531 1531 1531 1532 1532 1533 1533 1534 1534 1534 1535 1535
1515 1516 1516 1517 1517 1518 1519 1519 1520 1520 1520 1520 1520 1520 1520 1520 1520 1520 1521 1522 1523 1524 1524 1525 1526 1526 1527 1528 1528 1528 1528 1529 1529 1530 1530 1530 1531 1531 1532 1532 1533 1533 1534
1514 1515 1516 1516 1517 1517 1518 1518 1519 1519 1519 1519 1519 1519 1519 1518 1519 1519 1520 1521 1521 1522 1522 1523 1523 1524 1524 1525 1525 1526 1526 1527 1527 1527 1528 1528 1529 1529 1530 1530 1531 1531 1532
1513 1514 1515 1515 1516 1516 1516 1517 1517 1517 1517 1517 1517 1517 1517 1517 1517 1517 1518 1518 1519 1519 1520 1520 1521 1521 1522 1522 1523 1523 1524 1524 1525 1525 1526 1526 1527 1527 1528 1528 1529 1529 1530
1512 1513 1514 1514 1515 1515 1515 1515 1516 1516 1516 1516 1516 1516 1516 1516 1515 1515 1516 1516 1516 1516 1517 1518 1518 1518 1519 1519 1520 1521 1521 1522 1522 1523 1523 1524 1524 1525 1525 1526 1526 1527 1528
1511 1512 1512 1513 1514 1514 1514 1514 1514 1514 1515 1514 1514 1514 1514 1514 1514 1514 1514 1513 1514 1514 1514 1515 1515 1516 1516 1517 1517 1518 1519 1519 1520 1520 1521 1521 1522 1522 1523 1523 1524 1524 1525
1510 1510 1511 1511 1512 1512 1512 1513 1512 1512 1512 1512 1512 1512 1512 1512 1512 1512 1512 1511 1511 1511 1512 1512 1512 1513 1513 1514 1514 1515 1515 1516 1517 1517 1518 1518 1519 1519 1520 1521 1521 1522 1522
1508 1509 1509 1510 1510 1510 1510 1510 1510 1510 1510 1510 1510 1510 1510 1509 1509 1509 1509 1509 1509 1509 1509 1509 1509 1510 1510 1511 1511 1512 1512 1513 1513 1514 1514 1515 1516 1516 1517 1518 1518 1519 1519
1506 1506 1507 1507 1507 1508 1508 1508 1507 1507 1507 1507 1507 1507 1507 1507 1507 1507 1507 1506 1506 1506 1506 1506 1506 1506 1507 1507 1508 1508 1509 1509 1510 1510 1511 1511 1512 1513 1513 1514 1515 1515 1515
1503 1503 1504 1505 1505 1505 1505 1505 1505 1504 1504 1504 1504 1504 1504 1504 1504 1504 1504 1504 1504 1504 1503 1503 1503 1503 1504 1504 1505 1505 1505 1505 1506 1506 1507 1508 1508 1509 1509 1510 1510 1511 1511
1500 1501 1501 1501 1502 1502 1502 1502 1501 1501 1501 1501 1501 1501 1501 1501 1501 1501 1501 1501 1501 1501 1501 1500 1500 1500 1500 1501 1501 1501 1501 1501 1501 1502 1503 1503 1504 1505 1505 1505 1506 1506 1507
1498 1498 1499 1499 1499 1499 1499 1499 1498 1498 1498 1498 1498 1498 1498 1498 1498 1498 1498 1498 1498 1498 1498 1497 1497 1497 1497 1497 1497 1497 1497 1497 1497 1498 1499 1499 1499 1500 1500 1501 1501 1501 1502
1496 1496 1496 1496 1496 1496 1496 1495 1495 1495 1495 1495 1495 1495 1495 1495 1495 1495 1495 1495 1495 1495 1494 1494 1494 1494 1494 1493 1493 1493 1493 1493 1493 1493 1494 1495 1495 1496 1496 1496 1497 1497 1497
1493 1493 1493 1493 1493 1493 1493 1492 1492 1492 1492 1492 1492 1492 1492 1492 1491 1491 1491 1491 1491 1491 1491 1490 1490 1490 1490 1490 1489 1489 1489 1490 1490 1489 1489 1490 1491 1491 1491 1492 1492 1493 1493
1491 1491 1490 1490 1490 1490 1489 1488 1488 1489 1489 1488 1488 1488 1488 1488 1488 1488 1488 1488 1488 1487 1487 1486 1486 1486 1486 1486 1486 1485 1485 1486 1486 1485 1485 1486 1486 1486 1487 1487 1487 1488 1488
1488 1488 1487 1487 1486 1486 1486 1485 1485 1485 1485 1485 1485 1485 1485 1485 1485 1485 1485 1484 1484 1483 1483 1483 1482 1482 1482 1482 1482 1481 1481 1481 1481 1481 1481 1481 1481 1482 1482 1482 1482 1482 1483
1485 1485 1484 1483 1483 1483 1483 1483 1482 1482 1482 1482 1482 1482 1482 1482 1481 1481 1481 1481 1480 1480 1480 1479 1479 1478 1478 1478 1478 1477 1476 1477 1477 1476 1476 1476 1476 1476 1476 1477 1477 1477 1478
1482 1482 1481 1481 1480 1480 1480 1480 1479 1479 1479 1479 1479 1479 1479 1478 1478 1478 1478 1477 1477 1477 1476 1476 1476 1475 1475 1474 1474 1473 1473 1473 1472 1472 1471 1471 1471 1471 1471 1472 1472 1472 1473